World > North America > United States > Florida
Hourly Weather in Spring Hill, FloridaSpring Hill, Florida Hourly Weather

Spring Hill, FL Hourly Weather

Hourly Weather Spring Hill, FloridaHourly Weather in Spring Hill, FL
Lat: 30.34N, Lon: 84.39W  ICAO: KBKV
Web Search

Helpful Tip: Abbreviated, 7 Day, 14 Day Forecasts. There is a weather forecast for every taste.

Feedback

Spring Hill Hourly Weather

36 Hour Weather Scroll   °F Click to change Spring Hill hourly weather to Imperial units.Click to change Spring Hill hourly weather to Metric units. °C
Currently, Clear, temperature is 80°F27°C, dew point 73°F23°C, humidity 79%. Wind direction is SE at 6 mph10 km/h with visibility of 10.00 mi16 km. Barometric pressure is 30.06 in1018 mb.

Sep 21
10:00 AM

Sep 21
11:00 AM

Sep 21
NOON

Sep 21
1:00 PM

Sep 21
2:00 PM

Sep 21
3:00 PM

Sep 21
4:00 PM

Sep 21
5:00 PM

Sep 21
6:00 PM

Sep 21
7:00 PM

Sep 21
8:00 PM

Sep 21
9:00 PM

Sep 21
10:00 PM

Sep 21
11:00 PM

Sep 22
MIDNIGHT

Sep 22
1:00 AM

Sep 22
2:00 AM

Sep 22
3:00 AM

Sep 22
4:00 AM

Sep 22
5:00 AM

Sep 22
6:00 AM

Sep 22
7:00 AM

Sep 22
8:00 AM

Sep 22
9:00 AM

Sep 22
10:00 AM

Sep 22
11:00 AM

Sep 22
NOON

Sep 22
1:00 PM

Sep 22
2:00 PM

Sep 22
3:00 PM

Sep 22
4:00 PM

Sep 22
5:00 PM

Sep 22
6:00 PM

Sep 22
7:00 PM

Sep 22
8:00 PM

Sep 22
9:00 PM
Mostly Cloudy Mostly Cloudy Mostly Cloudy Cloudy Cloudy Cloudy Cloudy Cloudy Cloudy Cloudy Cloudy Cloudy Cloudy Cloudy Cloudy Cloudy Cloudy Cloudy Cloudy Cloudy Cloudy Cloudy Cloudy Cloudy Mostly Cloudy Mostly Cloudy Mostly Cloudy Mostly Cloudy Mostly Cloudy Mostly Cloudy Cloudy Cloudy Cloudy Mostly Cloudy Mostly Cloudy Mostly Cloudy
Mostly Cloudy Mostly Cloudy Mostly Cloudy Cloudy Cloudy Cloudy Cloudy Cloudy Cloudy Cloudy Cloudy Cloudy Cloudy Cloudy Cloudy Cloudy Cloudy Cloudy Cloudy Cloudy Cloudy Cloudy Cloudy Cloudy Mostly Cloudy Mostly Cloudy Mostly Cloudy Mostly Cloudy Mostly Cloudy Mostly Cloudy Cloudy Cloudy Cloudy Mostly Cloudy Mostly Cloudy Mostly Cloudy
79°F26°C 81°F27°C 82°F28°C 83°F28°C 84°F29°C 83°F28°C 82°F28°C 81°F27°C 79°F26°C 77°F25°C 75°F24°C 75°F24°C 74°F23°C 74°F23°C 74°F23°C 73°F23°C 73°F23°C 73°F23°C 73°F23°C 73°F23°C 73°F23°C 73°F23°C 73°F23°C 75°F24°C 78°F26°C 80°F27°C 81°F27°C 83°F28°C 84°F29°C 84°F29°C 83°F28°C 83°F28°C 81°F27°C 78°F26°C 76°F24°C 75°F24°C
Rain Rain Rain Rain Rain Rain Rain Rain Rain Rain Rain Rain Rain Rain Rain Rain Rain Rain Rain Rain Rain Rain Rain Rain Rain Rain Rain Rain Rain Rain Rain Rain Rain Rain Rain -
42% 42% 42% 42% 42% 69% 69% 69% 69% 69% 69% 41% 41% 41% 41% 41% 41% 34% 34% 34% 34% 34% 34% 34% 34% 34% 34% 34% 34% 43% 43% 43% 43% 43% 43% 17%
74°F23°C 75°F24°C 75°F24°C 76°F24°C 76°F24°C 76°F24°C 75°F24°C 75°F24°C 75°F24°C 74°F23°C 74°F23°C 74°F23°C 73°F23°C 73°F23°C 73°F23°C 72°F22°C 72°F22°C 72°F22°C 72°F22°C 72°F22°C 72°F22°C 72°F22°C 72°F22°C 73°F23°C 73°F23°C 74°F23°C 74°F23°C 73°F23°C 73°F23°C 73°F23°C 73°F23°C 73°F23°C 73°F23°C 73°F23°C 73°F23°C 73°F23°C
85% 82% 79% 80% 77% 80% 79% 82% 88% 91% 97% 97% 97% 97% 97% 97% 97% 97% 97% 97% 97% 97% 97% 94% 85% 82% 79% 72% 70% 70% 72% 72% 77% 85% 90% 94%
SE SE SSE SSW NW NW NW NW SW SSE ENE E E SE SE SE SSE SE E E E E E SE SE S SSE SSW W W W W W W W S
1 mph 1 mph 1 mph 4 mph 4 mph 4 mph 7 mph 7 mph 7 mph 5 mph 5 mph 5 mph 5 mph 5 mph 5 mph 1 mph 1 mph 1 mph 1 mph 1 mph 1 mph 1 mph 1 mph 1 mph 3 mph 3 mph 3 mph 6 mph 6 mph 6 mph 7 mph 7 mph 7 mph 5 mph 5 mph 5 mph
10 mi16 km 10 mi16 km 10 mi16 km 10 mi16 km 10 mi16 km 6 mi10 km 6 mi10 km 5 mi8 km 5 mi8 km 5 mi8 km 5 mi8 km 6 mi10 km 6 mi10 km 10 mi16 km 10 mi16 km 10 mi16 km 10 mi16 km 6 mi10 km 3 mi5 km .75 mi1 km 3 mi5 km 6 mi10 km 10 mi16 km 10 mi16 km 10 mi16 km 10 mi16 km 10 mi16 km 10 mi16 km 10 mi16 km 10 mi16 km 10 mi16 km 10 mi16 km 10 mi16 km 10 mi16 km 10 mi16 km 10 mi16 km
Hour (EDT)
Weather
Clouds
Temperature
Precip. Type
POP
Dewpoint
Humidity
Wind Direction
Wind Speed
Visibility
POP = Probability of Precipitation. ** Indicates missing data/values from model statistics.

24 Hour Forecast

Today - Partly sunny this morning, then mostly cloudy with scattered showers and thunderstorms this afternoon. Highs in the upper 80s. Southeast winds around 5 mph, becoming northwest this afternoon. Chance of rain 50%.
Tonight - Mostly cloudy in the evening, then becoming partly cloudy. Scattered showers and thunderstorms early in the evening, then isolated showers and thunderstorms late in the evening. Isolated showers and thunderstorms toward morning. Lows in the mid 70s. East winds around 5 mph, becoming south after midnight. Chance of rain 50%.

48 Hour Forecast API Feed


Tue, Sep 21
10:00 am

Tue, Sep 21
11:00 am

Tue, Sep 21
Noon

Tue, Sep 21
1:00 pm

Tue, Sep 21
2:00 pm

Tue, Sep 21
3:00 pm

Tue, Sep 21
4:00 pm

Tue, Sep 21
5:00 pm

Tue, Sep 21
6:00 pm

Tue, Sep 21
7:00 pm

Tue, Sep 21
8:00 pm

Tue, Sep 21
9:00 pm

Tue, Sep 21
10:00 pm

Tue, Sep 21
11:00 pm

Wed, Sep 22
Midnight

Wed, Sep 22
1:00 am

Wed, Sep 22
2:00 am

Wed, Sep 22
3:00 am

Wed, Sep 22
4:00 am

Wed, Sep 22
5:00 am

Wed, Sep 22
6:00 am

Wed, Sep 22
7:00 am

Wed, Sep 22
8:00 am

Wed, Sep 22
9:00 am

Wed, Sep 22
10:00 am

Wed, Sep 22
11:00 am

Wed, Sep 22
Noon

Wed, Sep 22
1:00 pm

Wed, Sep 22
2:00 pm

Wed, Sep 22
3:00 pm

Wed, Sep 22
4:00 pm

Wed, Sep 22
5:00 pm

Wed, Sep 22
6:00 pm

Wed, Sep 22
7:00 pm

Wed, Sep 22
8:00 pm

Wed, Sep 22
9:00 pm

Wed, Sep 22
10:00 pm

Wed, Sep 22
11:00 pm

Thu, Sep 23
Midnight

Thu, Sep 23
1:00 am

Thu, Sep 23
2:00 am

Thu, Sep 23
3:00 am

Thu, Sep 23
4:00 am

Thu, Sep 23
5:00 am

Thu, Sep 23
6:00 am

Thu, Sep 23
7:00 am

Thu, Sep 23
8:00 am

Thu, Sep 23
9:00 am
Partly CloudyPartly CloudyPartly CloudyCloudyPatchy Rain PossibleLight Rain ShowerLight Rain ShowerLight Rain ShowerPatchy Rain PossiblePatchy Rain PossiblePatchy Rain PossiblePartly CloudyPartly CloudyPartly CloudyPartly CloudyPartly CloudyPartly CloudyMistMistMistMistMistMistPartly CloudyPartly CloudyPatchy Rain PossiblePatchy Rain PossiblePatchy Rain PossiblePatchy Rain PossiblePatchy Rain PossibleLight Rain ShowerModerate Or Heavy Rain ShowerPatchy Rain PossiblePatchy Rain PossibleModerate Or Heavy Rain ShowerPartly CloudyPartly CloudyPartly CloudyPartly CloudyPartly CloudyPartly CloudyPartly CloudyPartly CloudyPartly CloudyClearClearSunnySunny
Partly cloudy Partly cloudy Partly cloudy Cloudy Patchy rain possible Light rain showers Light rain showers Light rain showers Patchy rain possible Patchy rain possible Patchy rain possible Partly cloudy Partly cloudy Partly cloudy Partly cloudy Partly cloudy Partly cloudy Mist Mist Mist Mist Mist Mist Partly cloudy Partly cloudy Patchy rain possible Patchy rain possible Patchy rain possible Patchy rain possible Patchy rain possible Light rain showers Moderate rain showers Patchy rain possible Patchy rain possible Moderate rain showers Partly cloudy Partly cloudy Partly cloudy Partly cloudy Partly cloudy Partly cloudy Partly cloudy Partly cloudy Partly cloudy Clear Clear Sunny Sunny
81°F
27°C
88°F
31°C
90°F
32°C
92°F
33°C
93°F
34°C
90°F
32°C
84°F
29°C
81°F
27°C
81°F
27°C
80°F
26°C
78°F
26°C
77°F
25°C
76°F
24°C
75°F
24°C
74°F
23°C
73°F
23°C
73°F
23°C
73°F
23°C
72°F
22°C
72°F
22°C
72°F
22°C
71°F
22°C
73°F
23°C
76°F
25°C
81°F
27°C
87°F
30°C
88°F
31°C
89°F
32°C
90°F
32°C
88°F
31°C
84°F
29°C
82°F
28°C
80°F
27°C
77°F
25°C
75°F
24°C
74°F
23°C
73°F
23°C
72°F
22°C
70°F
21°C
69°F
21°C
68°F
20°C
66°F
19°C
65°F
18°C
64°F
18°C
63°F
17°C
61°F
16°C
61°F
16°C
64°F
18°C
72°F
22°C
74°F
23°C
72°F
22°C
71°F
22°C
71°F
21°C
71°F
22°C
74°F
23°C
74°F
24°C
75°F
24°C
74°F
24°C
73°F
23°C
73°F
23°C
73°F
23°C
72°F
22°C
72°F
22°C
71°F
22°C
71°F
22°C
71°F
22°C
71°F
22°C
71°F
22°C
71°F
21°C
70°F
21°C
71°F
22°C
72°F
22°C
71°F
22°C
73°F
23°C
71°F
22°C
71°F
22°C
70°F
21°C
71°F
22°C
73°F
23°C
73°F
23°C
73°F
23°C
71°F
22°C
69°F
20°C
67°F
20°C
65°F
18°C
63°F
17°C
60°F
16°C
59°F
15°C
58°F
14°C
56°F
13°C
55°F
13°C
54°F
12°C
54°F
12°C
53°F
12°C
53°F
12°C
53°F
12°C
30.06 in
1018 mb
30.06 in
1018 mb
30.06 in
1018 mb
30.03 in
1017 mb
30 in
1016 mb
29.97 in
1015 mb
29.97 in
1015 mb
29.97 in
1015 mb
29.97 in
1015 mb
29.97 in
1015 mb
29.97 in
1015 mb
29.97 in
1015 mb
29.97 in
1015 mb
30 in
1016 mb
30 in
1016 mb
29.97 in
1015 mb
29.97 in
1015 mb
29.97 in
1015 mb
29.94 in
1014 mb
29.94 in
1014 mb
29.94 in
1014 mb
29.94 in
1014 mb
29.94 in
1014 mb
29.94 in
1014 mb
29.94 in
1014 mb
29.94 in
1014 mb
29.94 in
1014 mb
29.91 in
1013 mb
29.88 in
1012 mb
29.85 in
1011 mb
29.85 in
1011 mb
29.85 in
1011 mb
29.85 in
1011 mb
29.88 in
1012 mb
29.91 in
1013 mb
29.91 in
1013 mb
29.94 in
1014 mb
29.94 in
1014 mb
29.94 in
1014 mb
29.94 in
1014 mb
29.94 in
1014 mb
29.94 in
1014 mb
29.94 in
1014 mb
29.94 in
1014 mb
29.94 in
1014 mb
29.94 in
1014 mb
29.97 in
1015 mb
29.97 in
1015 mb
76%64%56%51%49%53%71%80%83%85%86%87%90%91%92%93%94%95%95%96%96%97%94%85%73%63%57%55%52%57%70%75%78%82%82%80%76%73%70%70%70%69%70%71%72%74%76%69%
NNWWSWWSWWWSWSSWSSSSWSSWSSWSSWSWSWSWWSWWSWWWWNWWWWSWWSWWSWWWNWWNWWNWWNWNWNWNWNNWNNWNNWNNWNNNNNNNNNNN
0 mph
1 km/h
1 mph
2 km/h
2 mph
3 km/h
2 mph
4 km/h
2 mph
4 km/h
3 mph
4 km/h
4 mph
6 km/h
4 mph
7 km/h
4 mph
6 km/h
3 mph
5 km/h
3 mph
5 km/h
3 mph
5 km/h
3 mph
5 km/h
3 mph
5 km/h
4 mph
6 km/h
4 mph
6 km/h
4 mph
6 km/h
4 mph
6 km/h
4 mph
6 km/h
4 mph
6 km/h
3 mph
5 km/h
3 mph
4 km/h
2 mph
4 km/h
2 mph
4 km/h
3 mph
5 km/h
5 mph
8 km/h
6 mph
9 km/h
6 mph
10 km/h
5 mph
9 km/h
7 mph
11 km/h
8 mph
13 km/h
9 mph
14 km/h
9 mph
14 km/h
9 mph
14 km/h
8 mph
12 km/h
8 mph
13 km/h
8 mph
13 km/h
7 mph
12 km/h
7 mph
12 km/h
7 mph
12 km/h
8 mph
13 km/h
8 mph
13 km/h
7 mph
12 km/h
7 mph
11 km/h
6 mph
10 km/h
6 mph
9 km/h
6 mph
9 km/h
7 mph
12 km/h
0%0%0%0%84%65%78%74%73%80%79%0%0%0%0%0%0%0%0%0%0%0%0%0%0%79%83%66%65%76%83%87%85%87%73%0%0%0%0%0%0%0%0%0%0%0%0%0%
6 mi
10 km
6 mi
10 km
6 mi
10 km
6 mi
10 km
6 mi
10 km
6 mi
10 km
6 mi
10 km
6 mi
10 km
6 mi
9 km
6 mi
9 km
6 mi
9 km
6 mi
10 km
6 mi
10 km
6 mi
10 km
6 mi
10 km
6 mi
10 km
6 mi
10 km
1 mi
2 km
1 mi
2 km
1 mi
2 km
1 mi
2 km
1 mi
2 km
1 mi
2 km
6 mi
10 km
6 mi
10 km
6 mi
10 km
6 mi
10 km
6 mi
10 km
6 mi
9 km
6 mi
9 km
6 mi
10 km
4 mi
7 km
6 mi
9 km
6 mi
9 km
4 mi
7 km
6 mi
10 km
6 mi
10 km
6 mi
10 km
6 mi
10 km
6 mi
10 km
6 mi
10 km
6 mi
10 km
6 mi
10 km
6 mi
10 km
6 mi
10 km
6 mi
10 km
6 mi
10 km
6 mi
10 km

Day/Time
Weather
Condition
Temperature
Dew Point
Pressure
Humidity
Wind Direction
Wind Speed
Prob Precip %
Visibility
Prob Precip % = Probability of Precipitation.